AMX26 EHAM-MMMX

Flight info

Callsign AMX26
Flight time N/A
Altitude 34000
Route BERGI L602 NALAX L46 GETNO DCT NIBOG DCT RESNO/M084F350 DCT 56N020W 56N030W 56N040W 55N050W DCT LOMSI/N0500F360 DCT EXPOS DCT NOWAA DCT 4830N08000W DCT KP06Q DCT KP87O DCT KG75M/N0481F380 DCT KK60K DCT KK45I DCT KF21G DCT KH87E DCT PSX J177 TAM UT100 ENAGA ENAGA3A
Aircraft B789/H-SDE1E2E3FGHIJ2J3J4J5M1RWXY/LB1D1

Departure

Time 2026-05-04 16:37
Airport Amsterdam Airport Schiphol (EHAM)

Arrival

Time N/A
Airport Mexico City Benito Juárez International Airport (MMMX)
Time Latitude Longitude Altitude Speed Heading
2026-05-04 15:54 52.30979 4.76927 18 ft 0 kts 137°
2026-05-04 16:18 52.30997 4.76900 18 ft 3 kts 137°
2026-05-04 16:18 52.31012 4.76878 18 ft 3 kts 137°
2026-05-04 16:19 52.31032 4.76824 18 ft 3 kts 59°
2026-05-04 16:19 52.31006 4.76787 18 ft 1 kts 34°
2026-05-04 16:20 52.31002 4.76782 18 ft 0 kts 34°
2026-05-04 16:22 52.31002 4.76783 18 ft 0 kts 34°
2026-05-04 16:23 52.31003 4.76783 18 ft 0 kts 34°
2026-05-04 16:24 52.31075 4.76862 18 ft 21 kts 34°
2026-05-04 16:25 52.31242 4.77044 18 ft 12 kts 33°
2026-05-04 16:26 52.31448 4.77174 18 ft 0 kts 316°
2026-05-04 16:26 52.31481 4.76956 18 ft 8 kts 267°
2026-05-04 16:27 52.31470 4.76609 18 ft 26 kts 267°
2026-05-04 16:28 52.31449 4.76010 18 ft 9 kts 266°
2026-05-04 16:28 52.31437 4.75649 18 ft 3 kts 266°
2026-05-04 16:29 52.31517 4.75334 18 ft 15 kts 274°
2026-05-04 16:30 52.31483 4.74682 18 ft 19 kts 270°
2026-05-04 16:31 52.31483 4.74418 18 ft 5 kts 269°
2026-05-04 16:31 52.31482 4.74360 18 ft 0 kts 269°
2026-05-04 16:32 52.31480 4.74334 18 ft 6 kts 263°
2026-05-04 16:33 52.31373 4.74274 18 ft 11 kts 184°
2026-05-04 16:33 52.31085 4.74258 18 ft 30 kts 181°
2026-05-04 16:34 52.30741 4.74215 18 ft 26 kts 184°
2026-05-04 16:34 52.30586 4.74125 18 ft 26 kts 250°
2026-05-04 16:35 52.30687 4.73866 18 ft 21 kts 334°
2026-05-04 16:35 52.30798 4.73800 18 ft 0 kts
2026-05-04 16:36 52.30950 4.73817 18 ft 58 kts
2026-05-04 16:36 52.32659 4.73980 37 ft 176 kts
2026-05-04 16:37 52.35438 4.74204 747 ft 218 kts
2026-05-04 16:37 52.36984 4.73715 1096 ft 238 kts 340°
2026-05-04 16:37 52.39508 4.70313 2633 ft 247 kts 316°
2026-05-04 16:38 52.42469 4.66364 3571 ft 303 kts 323°
2026-05-04 16:39 52.48337 4.60467 5022 ft 353 kts 329°
2026-05-04 16:39 52.52562 4.56552 6209 ft 320 kts 329°
2026-05-04 16:40 52.56164 4.53239 7360 ft 274 kts 328°
2026-05-04 16:40 52.59286 4.50358 8491 ft 252 kts 328°
2026-05-04 16:41 52.62349 4.47520 9387 ft 253 kts 328°
2026-05-04 16:41 52.66915 4.43290 10736 ft 250 kts 328°
2026-05-04 16:42 52.71503 4.39038 11807 ft 256 kts 327°
2026-05-04 16:43 52.74620 4.36074 12468 ft 258 kts 321°
2026-05-04 16:43 52.76545 4.31281 13119 ft 254 kts 294°
2026-05-04 16:43 52.77358 4.28631 13335 ft 259 kts 294°
2026-05-04 16:44 52.80818 4.18088 14533 ft 265 kts 295°
2026-05-04 16:45 52.82633 4.12718 15125 ft 266 kts 296°
2026-05-04 16:46 52.85323 4.04778 16038 ft 265 kts 298°
2026-05-04 16:46 52.87148 3.99400 17019 ft 271 kts 297°
2026-05-04 16:47 52.89058 3.93758 17700 ft 289 kts 295°
2026-05-04 16:47 52.91035 3.87886 18716 ft 294 kts 295°
2026-05-04 16:48 52.94050 3.78920 20218 ft 299 kts 295°
2026-05-04 16:48 52.95051 3.75938 20712 ft 299 kts 295°
2026-05-04 16:49 52.97078 3.69885 21620 ft 302 kts 295°
2026-05-04 16:49 52.99120 3.63741 22482 ft 305 kts 295°
2026-05-04 16:50 53.01181 3.57501 23183 ft 312 kts 294°
2026-05-04 16:50 53.03268 3.51172 23960 ft 314 kts 294°
2026-05-04 16:51 53.05366 3.44794 24774 ft 314 kts 294°
2026-05-04 16:51 53.06411 3.41609 25016 ft 320 kts 294°
2026-05-04 16:51 53.08552 3.35074 25721 ft 323 kts 293°
2026-05-04 16:52 53.10342 3.28319 26257 ft 323 kts 281°
2026-05-04 16:52 53.10854 3.24703 26760 ft 318 kts 278°
2026-05-04 16:53 53.11800 3.17468 27474 ft 318 kts 277°
2026-05-04 16:53 53.13240 3.06489 28255 ft 327 kts 277°
2026-05-04 16:54 53.13727 3.02798 28610 ft 327 kts 277°
2026-05-04 16:55 53.15687 2.87873 29644 ft 335 kts 277°
2026-05-04 16:55 53.16678 2.80264 30159 ft 338 kts 277°
2026-05-04 16:56 53.17682 2.72515 30618 ft 342 kts 277°
2026-05-04 16:56 53.19193 2.60782 31265 ft 350 kts 278°
2026-05-04 16:57 53.19703 2.56800 31481 ft 352 kts 278°
2026-05-04 16:57 53.20726 2.48781 31771 ft 352 kts 278°
2026-05-04 16:58 53.22741 2.32785 31859 ft 352 kts 278°
2026-05-04 17:00 53.25717 2.08792 32002 ft 352 kts 279°